Regional Weather Roundup
Issued by NWS

Home | Current Version | Previous Version | Text Only | Print | Product List | Glossary Off
Versions: 1 2 3 4 5 6 7 8 9 10 11 12 13 14 15 16 17 18 19 20 21 22 23 24 25 26 27 28 29 30 31 32 33 34 35 36 37 38 39 40 41 42 43 44 45 46 47 48 49 50

000
ASUS43 KDTX 250810
RWRMI
MICHIGAN HOURLY REGIONAL WEATHER ROUNDUP
NATIONAL WEATHER SERVICE DETROIT/PONTIAC MI
400 AM EDT WED APR 25 2018

NOTE: "FAIR" INDICATES FEW OR NO CLOUDS BELOW 12,000 FEET WITH NO
SIGNIFICANT WEATHER AND/OR OBSTRUCTION TO VISIBILITY.

MIZ047>049-052>055-059>063-066>070-074>076-081>083-250900-
SOUTHEAST LOWER MICHIGAN

CITY           SKY/WX    TMP DP  RH WIND       PRES   REMARKS
ADRIAN         CLOUDY    50  50 100 N6        29.92F FOG
ALMA           CLOUDY    45  44  98 N10       29.98S
ANN ARBOR      LGT RAIN  51  50  96 NW5       29.91F FOG
BAD AXE        LGT RAIN  51  48  88 N5        29.95S
CARO           CLOUDY    50  48  93 NW3       29.93F FOG
DETROIT CITY   CLOUDY    49  48  97 E3        29.91S FOG
DETROIT        LGT RAIN  51  48  89 N5        29.91F FOG
FLINT          CLOUDY    50  49  96 N7        29.93F
GROSSE ILE     CLOUDY    50  49  98 N3        29.89F FOG
HILLSDALE      CLOUDY    50  48  93 NW7       29.91F FOG
HOWELL         DRIZZLE   50  49  99 CALM      29.92F

CITY           SKY/WX    TMP DP  RH WIND       PRES   REMARKS
JACKSON        CLOUDY    51  51 100 W7        29.92F FOG
LAMBERTVILLE   CLOUDY    51  49  92 CALM      29.90F FOG
LANSING        CLOUDY    51  51 100 N13       29.94F FOG
LAPEER         CLOUDY    50  49  98 N3        29.93S
MASON          CLOUDY    52  49  89 N8        29.93F FOG
MONROE         CLOUDY    50  48  93 CALM      29.89F FOG
MT. CLEMENS    CLOUDY    49  49 100 CALM      29.89F
PONTIAC        CLOUDY    51  50  96 NW5       29.91F
PORT HOPE        N/A     40  39  97 N7        29.95F
PORT HURON     LGT RAIN  50  48  93 CALM      29.91F
TRI CITIES     CLOUDY    46  42  86 N20       29.97F FOG
MIDLAND        CLOUDY    43  41  93 N9        29.98F
TROY           DRIZZLE   51  50  95 CALM      29.93S
SAGINAW HB     DRIZZLE   46  46 100 N9        29.96R
$$
MIZ043>046-050>051-056>058-064>065-071>073-077>080-250900-
SOUTHWEST LOWER MICHIGAN

CITY           SKY/WX    TMP DP  RH WIND       PRES   REMARKS
BATTLE CREEK   CLOUDY    52  50  93 N7        29.95F
BENTON HARBOR  MOCLDY    44  40  85 N9        29.99R
BIG RAPIDS     CLOUDY    41  32  69 N9        30.02S
COLDWATER      CLOUDY    51  51 100 NW5       29.93F FOG
FREMONT        CLOUDY    45  25  45 N13       30.02F
HOLLAND        CLOUDY    49  37  63 N12G20    29.99F
GRAND RAPIDS   CLOUDY    48  42  80 N13       29.98R
IONIA          CLOUDY    48  43  84 N16       29.96F
KALAMAZOO      CLOUDY    53  50  89 N8        29.95F
LUDINGTON      CLOUDY    41  32  69 N6        30.06S
MARSHALL       CLOUDY    51  51  98 NW5       29.94S
MOUNT PLEASANT CLOUDY    44  40  86 N7G16     29.99S
MUSKEGON       CLOUDY    48  31  51 N12       30.03R
SOUTH HAVEN    MOCLDY    45  41  86 N9G17     29.99R
$$
MIZ016>042-250900-
NORTHERN LOWER MICHIGAN

CITY           SKY/WX    TMP DP  RH WIND       PRES   REMARKS
ALPENA         LGT RAIN  39  37  92 W5        29.99F
BEAVER ISLAND  FAIR      38  32  78 NW8       30.08S WCI  32
BELLAIRE       MIX PCPN  41  34  75 N6        30.07S
CADILLAC       FAIR      38  32  78 N9        30.03F WCI  32
CHARLEVOIX     LGT RAIN  37  37 100 NW5       30.09F WCI  33
FRANKFORT      CLOUDY    40  34  79 N9        30.08F WCI  34
GAYLORD        MOCLDY    39  30  70 NW5       30.02F
GRAYLING       FAIR      40  30  67 NW7       30.01F
HARBOR SPRINGS LGT RAIN  40  37  89 W3        30.04F
HOUGHTON LAKE  CLOUDY    40  34  79 N8        30.01F WCI  34
MANISTEE       CLOUDY    43  31  62 N7        30.07F
OSCODA         LGT RAIN  42  39  89 NW8       29.98S
PELLSTON       LGT RAIN  40  36  86 NW7       30.05F
ROGERS CITY    LGT RAIN  40  34  77 NW7       30.01F
TRAVERSE CITY  LGT RAIN  41  33  73 N12       30.07F
$$
MIZ007>008-015-250900-
EASTERN UPPER MICHIGAN

CITY           SKY/WX    TMP DP  RH WIND       PRES   REMARKS
KINROSS        LGT RAIN  38  34  85 NW10      30.03F WCI  31
MACKINAC ISLAN LGT RAIN  40  36  86 N8        30.02F WCI  35
NEWBERRY       FAIR      34  33  96 NW7       30.06F WCI  28
MUNISING         N/A     34  32  92 CALM      30.13F
$$
MIZ004>006-011>014-085-250900-
CENTRAL UPPER MICHIGAN

CITY           SKY/WX    TMP DP  RH WIND       PRES   REMARKS
MANISTIQUE     FAIR      33  32  96 NW10G17   30.10F WCI  25
ESCANABA       FAIR      34  27  75 VRB6      30.14F WCI  29
MENOMINEE      FAIR      37  33  85 N9        30.15F WCI  30
SAWYER-GWINN   FAIR      32  26  78 N13G18    30.15S WCI  22
$$
MIZ001>003-009>011-084-250900-
WESTERN UPPER MICHIGAN

CITY           SKY/WX    TMP DP  RH WIND       PRES   REMARKS
IRON MOUNTAIN  FAIR      32  28  85 NW7       30.15S WCI  26
HOUGHTON       FAIR      33  22  63 N12       30.19F WCI  24
COPPER HARBOR    N/A     35  27  72 NE13      30.20F WCI  26
IRONWOOD       FAIR      26  25  96 SW3       30.24S
$$

ABBREVIATIONS USED IN REMARKS
   TC - TEMPERATURE IN CELSIUS
  WCI - WIND CHILL INDEX
   HX - HEAT INDEX
  VSB - VISIBILITY





USA.gov is the U.S. government's official web portal to all federal, state and local government web resources and services.